Location: Okie-Tex Star Party
(36.8978°N, 102.9520°W)
Time: 05:20:31
(UTC-05:00)

Oscar 16 - Visible Passes

Search period start: 26 July 2016 00:00
Search period end: 05 August 2016 00:00
Orbit: 774 x 791 km, 98.6° (Epoch: 25 July)

Date Brightness Start Highest point End Pass type
(mag) Time Alt. Az. Time Alt. Az. Time Alt. Az.
26 Jul 12.6 02:32:16 10° NE 02:35:04 21° ENE 02:35:04 21° ENE visible
26 Jul 11.4 04:10:56 10° N 04:15:38 38° WNW 04:15:38 38° WNW visible
27 Jul 10.8 03:39:02 10° N 03:43:34 67° NNW 03:43:34 67° NNW visible
28 Jul 11.5 03:07:33 10° NNE 03:11:31 44° ENE 03:11:31 44° ENE visible
28 Jul 12.3 04:48:04 10° NNW 04:51:29 18° WNW 04:52:05 18° WNW visible
29 Jul 12.5 02:36:37 10° NE 02:39:27 22° ENE 02:39:27 22° ENE visible
29 Jul 11.5 04:15:31 10° N 04:20:01 35° WNW 04:20:01 35° WNW visible
30 Jul 13.2 02:07:07 10° ENE 02:07:24 10° ENE 02:07:24 10° ENE visible
30 Jul 10.9 03:43:33 10° N 03:47:58 61° NNW 03:47:58 61° NNW visible
31 Jul 11.5 03:12:00 10° NNE 03:15:54 45° NE 03:15:54 45° NE visible
31 Jul 12.4 04:52:47 10° NNW 04:55:56 16° WNW 04:56:28 16° WNW visible
01 Aug 12.5 02:40:58 10° NE 02:43:50 24° ENE 02:43:50 24° ENE visible
01 Aug 11.7 04:20:06 10° N 04:24:24 32° WNW 04:24:24 32° WNW visible
02 Aug 13.2 02:11:04 10° ENE 02:11:46 11° ENE 02:11:46 11° ENE visible
02 Aug 11.1 03:48:04 10° N 03:52:20 55° NNW 03:52:20 55° NNW visible
03 Aug 11.5 03:16:28 10° NNE 03:20:16 46° NE 03:20:16 46° NE visible
03 Aug 12.5 04:57:33 10° NNW 05:00:23 15° WNW 05:00:50 15° WNW visible
04 Aug 12.4 02:45:21 10° NE 02:48:12 25° ENE 02:48:12 25° ENE visible
04 Aug 11.8 04:24:42 10° N 04:28:46 29° WNW 04:28:46 29° WNW visible
